Weather History for Karlovy Vary, Czech Republic

Change the Weather History Date:

Wednesday, September 5, 2012

  Actual Average (EDQM) Record (EDQM)
Temperature  
Mean Temperature 58 °F -  
Max Temperature 71 °F 63 °F 77 °F (1997)
Min Temperature 46 °F 48 °F 37 °F (2003)
Degree Days  
Heating Degree Days 6    
Growing Degree Days 8 (Base 50)    
Moisture  
Dew Point 52 °F    
Average Humidity 76    
Maximum Humidity 100    
Minimum Humidity 46    
Precipitation  
Precipitation 0.00 in - - ()
Sea Level Pressure  
Sea Level Pressure 30.11 in    
Wind  
Wind Speed 3 mph ()    
Max Wind Speed 9 mph    
Max Gust Speed -    
Visibility 4.9 miles    
Events Fog , Rain    
Averages and records for this station are not official NWS values.
T = Trace of Precipitation, MM = Missing Value Source: Averaged Metar Reports

Daily Weather History Graph

Daily Weather History Graph

Search for Another Location

Airport:

Trip Planner

Search our weather history database for the weather conditions in past years. The results will help you decide how hot, cold, wet, or windy it might be!

Date:

Astronomy

Sep. 05, 2012 Rise Set
Actual Time 6:29 AM CEST 7:43 PM CEST
Civil Twilight 5:56 AM CEST 8:16 PM CEST
Nautical Twilight 5:15 AM CEST 8:57 PM CEST
Astronomical Twilight 4:31 AM CEST 9:40 PM CEST
Moon 9:24 PM CEST (9/5) 11:53 AM CEST (9/5)
Length of Visible Light 14h 20m
Length of Day
13h 13m
Waning Gibbous, 78% of the Moon is Illuminated
Sep 5
Waning Gibbous
Sep 8
Last Quarter
Sep 16
New
Sep 22
First Quarter
Sep 30
Full

Hourly Weather History & Observations

Time (CEST) Temp. Dew Point Humidity Pressure Visibility Wind Dir Wind Speed Gust Speed Precip Events Conditions
12:00 AM 51.8 °F 50.0 °F 94% 30.15 in - East 2.3 mph - N/A   Clear
1:00 AM 51.8 °F 50.0 °F 94% 30.15 in - East 3.5 mph - N/A   Clear
2:00 AM 50.0 °F 50.0 °F 100% 30.15 in - ESE 2.3 mph - N/A   Clear
3:00 AM 50.0 °F 48.2 °F 94% 30.15 in 3.1 mi East 2.3 mph - N/A   Mist
4:00 AM 48.2 °F 48.2 °F 100% 30.12 in 1.9 mi Variable 2.3 mph - N/A   Mist
5:00 AM 48.2 °F 48.2 °F 100% 30.12 in 0.9 mi East 2.3 mph - N/A   Mist
6:00 AM 48.2 °F 48.2 °F 100% 30.12 in 1.9 mi East 3.5 mph - N/A   Scattered Clouds
6:31 AM 48.2 °F 48.2 °F 100% 30.12 in 1.9 mi Variable 1.2 mph - N/A Fog Patches of Fog
6:40 AM 48.2 °F 48.2 °F 100% 30.12 in 0.4 mi East 2.3 mph - N/A Fog Fog
7:00 AM 46.4 °F 46.4 °F 100% 30.12 in 0.4 mi East 2.3 mph - N/A Fog Fog
7:49 AM 51.8 °F 51.8 °F 100% 30.12 in 3.1 mi Variable 1.2 mph - N/A Fog Mist
8:00 AM 51.8 °F 51.8 °F 100% 30.12 in 3.1 mi Calm Calm - N/A Fog Mist
8:30 AM 55.4 °F 53.6 °F 94% 30.12 in 3.4 mi Calm Calm - N/A Fog Unknown
9:00 AM 57.2 °F 55.4 °F 94% 30.12 in - Variable 2.3 mph - N/A   Clear
9:30 AM 62.6 °F 55.4 °F 77% 30.12 in - Variable 1.2 mph - N/A   Clear
10:00 AM 64.4 °F 55.4 °F 73% 30.12 in 6.2 mi Variable 3.5 mph - N/A   Partly Cloudy
10:30 AM 66.2 °F 53.6 °F 64% 30.12 in 6.2 mi Variable 3.5 mph - N/A   Partly Cloudy
11:00 AM 66.2 °F 53.6 °F 64% 30.12 in 6.2 mi Variable 2.3 mph - N/A   Partly Cloudy
11:30 AM 68.0 °F 51.8 °F 56% 30.12 in 6.2 mi Variable 4.6 mph - N/A   Partly Cloudy
12:00 PM 68.0 °F 51.8 °F 56% 30.12 in 6.2 mi Variable 4.6 mph - N/A   Scattered Clouds
12:30 PM 68.0 °F 51.8 °F 56% 30.12 in 6.2 mi Variable 4.6 mph - N/A   Scattered Clouds
1:00 PM 69.8 °F 51.8 °F 53% 30.12 in 6.2 mi Variable 2.3 mph - N/A   Scattered Clouds
1:30 PM 69.8 °F 51.8 °F 53% 30.09 in 6.2 mi NW 5.8 mph - N/A   Scattered Clouds
2:00 PM 71.6 °F 50.0 °F 46% 30.09 in 6.2 mi Variable 3.5 mph - N/A   Scattered Clouds
2:30 PM 69.8 °F 51.8 °F 53% 30.09 in 6.2 mi East 3.5 mph - N/A   Scattered Clouds
3:00 PM 71.6 °F 51.8 °F 50% 30.09 in 6.2 mi Variable 5.8 mph - N/A   Scattered Clouds
3:30 PM 71.6 °F 50.0 °F 46% 30.09 in 6.2 mi NW 5.8 mph - N/A   Mostly Cloudy
4:00 PM 69.8 °F 53.6 °F 56% 30.09 in 6.2 mi North 8.1 mph - N/A   Mostly Cloudy
4:30 PM 69.8 °F 53.6 °F 56% 30.09 in 6.2 mi North 9.2 mph - N/A   Mostly Cloudy
5:00 PM 68.0 °F 53.6 °F 60% 30.09 in 6.2 mi NNW 9.2 mph - N/A   Scattered Clouds
5:30 PM 66.2 °F 55.4 °F 68% 30.09 in 6.2 mi North 8.1 mph - N/A   Scattered Clouds
6:00 PM 66.2 °F 55.4 °F 68% 30.09 in 6.2 mi North 8.1 mph - N/A   Partly Cloudy
6:30 PM 64.4 °F 53.6 °F 68% 30.09 in - North 5.8 mph - N/A   Clear
7:00 PM 62.6 °F 53.6 °F 72% 30.09 in - NNW 5.8 mph - N/A   Clear
7:30 PM 62.6 °F 53.6 °F 72% 30.09 in - NNW 6.9 mph - N/A   Clear
8:00 PM 60.8 °F 53.6 °F 77% 30.12 in 6.2 mi NNW 5.8 mph - N/A   Partly Cloudy
8:22 PM 60.8 °F 53.6 °F 77% 30.12 in 6.2 mi NNW 6.9 mph - N/A Rain Light Rain
8:30 PM 60.8 °F 53.6 °F 77% 30.12 in 6.2 mi NNW 6.9 mph - N/A Rain Light Rain
9:00 PM 60.8 °F 53.6 °F 77% 30.12 in 6.2 mi NNW 4.6 mph - N/A   Mostly Cloudy
10:00 PM 59.0 °F 53.6 °F 82% 30.15 in 6.2 mi NNW 5.8 mph - N/A   Mostly Cloudy
11:00 PM 59.0 °F 53.6 °F 82% 30.15 in 6.2 mi NNW 5.8 mph - N/A   Scattered Clouds